1505005200.49,49795,14.44,73292.5,2.07,-24.41,-24.57,0,*79
1505005201.73,49796,14.38,73298.3,2.11,-24.51,-24.71,0,*78
1505005203.01,49797,14.38,73302.3,2.05,-24.67,-24.83,0,*74
1505005204.23,49798,14.44,73310.3,2.07,-24.61,-24.87,0,*7B
1505005205.48,49799,14.44,73304.3,2.05,-24.67,-24.93,0,*7B
1505005206.7,49800,14.44,73306.5,2.05,-24.93,-25.23,0,*75
1505005207.9,49801,14.44,73310.8,2.07,-24.77,-24.93,0,*76
1505005209.12,49802,14.38,73308.8,2.11,-24.15,-24.47,0,*7F
1505005210.36,49803,14.44,73300.0,2.07,-23.65,-23.95,0,*71
1505005211.64,49804,14.44,73304.3,2.05,-23.99,-24.15,0,*78
1505005212.83,49805,14.38,73306.0,2.07,-23.89,-24.05,0,*7B
1505005214.03,49806,14.38,73304.5,2.07,-23.59,-23.79,0,*79
1505005215.25,49807,14.38,73304.8,2.07,-23.65,-23.89,0,*78
1505005216.51,49808,14.38,73302.3,2.11,-23.53,-23.85,0,*79
1505005217.72,49809,14.38,73294.0,2.11,-23.75,-24.05,0,*73
1505005218.92,49810,14.44,73296.8,2.11,-23.59,-23.75,0,*75
1505005220.18,49811,14.38,73298.0,2.11,-23.53,-23.85,0,*71
1505005221.41,49812,14.38,73298.8,2.11,-23.85,-24.05,0,*76
1505005222.65,49813,14.44,73298.8,2.13,-23.69,-24.05,0,*77
1505005223.9,49814,14.44,73298.5,2.15,-23.95,-24.15,0,*74
1505005225.15,49815,14.44,73294.8,2.17,-24.11,-24.31,0,*7A
1505005226.36,49816,14.38,73294.3,2.15,-24.47,-24.61,0,*7D
1505005227.59,49817,14.44,73296.3,2.15,-24.25,-24.51,0,*7B
1505005228.84,49818,14.44,73294.0,2.15,-23.95,-24.25,0,*7B
1505005230.09,49819,14.44,73296.5,2.17,-23.79,-23.95,0,*76
1505005231.35,49820,14.44,73288.0,2.15,-23.53,-23.85,0,*77
1505005232.6,49821,14.38,73298.0,2.17,-24.11,-24.31,0,*7D
1505005233.85,49822,14.44,73294.5,2.15,-24.11,-24.41,0,*7B
1505005235.07,49823,14.38,73284.3,2.15,-23.65,-23.79,0,*72
1505005236.32,49824,14.38,73296.0,2.15,-23.49,-23.65,0,*76
1505005237.59,49825,14.44,73290.8,2.17,-23.33,-23.53,0,*7D
1505005238.84,49826,14.44,73292.8,2.17,-23.39,-23.53,0,*74
1505005240.06,49827,14.38,73284.0,2.19,-23.49,-23.75,0,*78
1505005241.33,49828,14.44,73286.0,2.21,-23.69,-23.99,0,*7C
1505005242.59,49829,14.44,73286.5,2.21,-23.99,-24.35,0,*73
1505005243.86,49830,14.38,73294.8,2.21,-24.15,-24.41,0,*7B
1505005245.11,49831,14.44,73294.8,2.19,-24.11,-24.41,0,*75
1505005246.39,49832,14.44,73298.0,2.21,-24.15,-24.41,0,*79
1505005247.61,49833,14.44,73296.3,2.19,-23.95,-24.35,0,*7F
1505005248.87,49834,14.38,73290.3,2.21,-24.21,-24.51,0,*79
1505005250.11,49835,14.44,73296.8,2.21,-24.31,-24.51,0,*79
1505005251.39,49836,14.38,73296.5,2.21,-24.21,-24.41,0,*7A
1505005252.63,49837,14.38,73296.3,2.21,-24.35,-24.57,0,*79
1505005253.86,49838,14.38,73290.3,2.19,-24.25,-24.57,0,*7C
1505005255.06,49839,14.44,73298.3,2.19,-24.35,-24.61,0,*79
1505005256.27,49840,14.38,73298.5,2.19,-24.35,-24.61,0,*77
1505005257.5,49841,14.38,73298.8,2.19,-24.47,-24.71,0,*72
1505005258.73,49842,14.38,73296.8,2.19,-24.61,-24.87,0,*7C
1505005259.96,49843,14.38,73298.5,2.19,-24.61,-24.87,0,*7D
1505005261.17,49844,14.44,73298.8,2.19,-24.47,-24.77,0,*71
1505005262.4,49845,14.44,73296.0,2.19,-24.41,-24.61,0,*71
1505005263.66,49846,14.44,73290.5,2.19,-24.41,-24.71,0,*73
1505005264.86,49847,14.38,73294.8,2.19,-24.61,-24.77,0,*76
1505005266.09,49848,14.44,73296.0,2.19,-24.57,-24.87,0,*73
1505005267.32,49849,14.38,73294.3,2.19,-24.47,-24.71,0,*7A
1505005268.56,49850,14.38,73298.5,2.19,-24.25,-24.61,0,*77
1505005269.84,49851,14.38,73298.0,2.21,-24.41,-24.83,0,*73
1505005271.08,49852,14.44,73300.5,2.19,-24.47,-24.87,0,*79
1505005272.28,49853,14.38,73298.0,2.19,-24.61,-24.93,0,*79
1505005273.54,49854,14.38,73300.5,2.21,-24.57,-24.71,0,*7C
1505005274.77,49855,14.38,73300.8,2.19,-24.47,-24.87,0,*7E
1505005276.0,49856,14.38,73302.3,2.17,-24.61,-24.93,0,*72
1505005277.22,49857,14.38,73302.0,2.17,-24.61,-24.93,0,*73
1505005278.43,49858,14.38,73302.5,2.15,-24.51,-24.93,0,*7D
1505005279.66,49859,14.44,73304.0,2.17,-24.77,-25.13,0,*73
1505005280.89,49860,14.38,73304.0,2.15,-24.83,-25.09,0,*7B
1505005282.13,49861,14.38,73308.3,2.17,-24.77,-25.09,0,*73
1505005283.36,49862,14.38,73306.3,2.17,-24.77,-25.13,0,*7B
1505005284.64,49863,14.44,73310.5,2.17,-24.41,-24.67,0,*7D
1505005285.9,49864,14.44,73294.8,2.17,-24.25,-24.61,0,*7E
1505005287.15,49865,14.38,73294.5,2.17,-24.15,-24.51,0,*7F
1505005288.38,49866,14.38,73296.3,2.15,-23.99,-24.31,0,*7B
1505005289.63,49867,14.38,73294.8,2.17,-24.11,-24.47,0,*7E
1505005290.88,49868,14.38,73288.0,2.17,-24.15,-24.51,0,*72
1505005292.14,49869,14.38,73282.5,2.19,-24.41,-24.71,0,*7E
1505005293.39,49870,14.38,73286.3,2.17,-24.67,-24.97,0,*74
1505005294.64,49871,14.38,73286.0,2.17,-24.67,-24.93,0,*71
1505005295.87,49872,14.44,73290.8,2.19,-24.57,-24.87,0,*7A
1505005297.12,49873,14.38,73288.5,2.17,-24.67,-24.97,0,*77
1505005298.38,49874,14.44,73296.5,2.17,-24.67,-25.09,0,*76
1505005299.6,49875,14.44,73298.8,2.17,-24.61,-24.97,0,*77
1505005300.86,49876,14.44,73294.3,2.21,-24.51,-24.83,0,*77
1505005302.07,49877,14.38,73290.3,2.15,-24.51,-24.77,0,*7A
1505005303.31,49878,14.44,73290.0,2.17,-24.51,-24.93,0,*7D
1505005304.57,49879,14.44,73290.8,2.17,-24.51,-24.83,0,*7D
1505005305.8,49880,14.44,73292.3,2.17,-24.51,-24.93,0,*7A
1505005307.02,49881,14.44,73294.8,2.17,-24.61,-24.93,0,*78
1505005308.26,49882,14.38,73294.8,2.17,-24.47,-24.77,0,*75
1505005309.49,49883,14.44,73294.0,2.17,-24.61,-24.93,0,*7A
1505005310.78,49884,14.38,73290.3,2.21,-24.41,-24.71,0,*76
1505005312.04,49885,14.38,73292.0,2.21,-24.35,-24.71,0,*74
1505005313.24,49886,14.38,73288.3,2.19,-24.35,-24.77,0,*7A
1505005314.5,49887,14.38,73290.5,2.21,-24.35,-24.71,0,*76
1505005315.73,49888,14.44,73296.3,2.19,-24.57,-24.87,0,*7F
1505005316.96,49889,14.38,73296.5,2.19,-24.61,-25.03,0,*76
1505005318.22,49890,14.38,73296.5,2.17,-24.67,-25.09,0,*7C
1505005319.44,49891,14.38,73298.5,2.17,-24.77,-24.97,0,*7A
1505005320.67,49892,14.44,73298.8,2.17,-24.61,-24.97,0,*7E
1505005321.91,49893,14.44,73302.0,2.17,-24.47,-24.77,0,*75
1505005323.14,49894,14.38,73298.0,2.15,-24.51,-24.83,0,*7C
1505005324.37,49895,14.38,73298.3,2.17,-24.51,-24.97,0,*7A
1505005325.57,49896,14.44,73300.5,2.19,-24.57,-24.93,0,*75
1505005326.77,49897,14.38,73294.0,2.19,-24.61,-24.93,0,*71
1505005327.97,49898,14.38,73294.8,2.19,-24.77,-25.19,0,*7A
1505005329.22,49899,14.44,73298.8,2.17,-24.93,-25.29,0,*7C
1505005330.42,49900,14.38,73294.8,2.15,-24.77,-25.13,0,*7C
1505005331.68,49901,14.38,73294.5,2.17,-24.41,-24.61,0,*7E
1505005332.93,49902,14.38,73288.5,2.17,-24.15,-24.51,0,*7F
1505005334.21,49903,14.38,73290.8,2.17,-24.25,-24.67,0,*78
1505005335.45,49904,14.38,73294.3,2.17,-24.51,-24.77,0,*7D
1505005336.68,49905,14.38,73292.8,2.15,-24.47,-24.83,0,*72
1505005337.91,49906,14.38,73292.0,2.17,-24.61,-24.97,0,*72
1505005339.16,49907,14.38,73292.5,2.17,-24.67,-24.93,0,*71
1505005340.36,49908,14.44,73298.3,2.19,-24.77,-25.19,0,*72
1505005341.6,49909,14.38,73294.3,2.19,-24.71,-25.09,0,*74
1505005342.83,49910,14.38,73298.5,2.19,-24.77,-25.03,0,*70
1505005344.05,49911,14.38,73294.8,2.15,-24.93,-25.29,0,*7F
1505005345.27,49912,14.38,73292.8,2.17,-24.93,-25.23,0,*74
1505005346.52,49913,14.38,73292.3,2.17,-24.83,-25.13,0,*77
1505005347.75,49914,14.38,73290.8,2.19,-24.87,-25.23,0,*79
1505005348.98,49915,14.38,73288.0,2.17,-24.97,-25.39,0,*7C
1505005350.2,49916,14.38,73288.0,2.17,-24.77,-24.97,0,*74
1505005351.4,49917,14.38,73290.0,2.15,-24.61,-24.97,0,*70
1505005352.66,49918,14.44,73294.0,2.17,-24.67,-24.93,0,*7F
1505005353.89,49919,14.44,73296.8,2.15,-24.83,-25.09,0,*74
1505005355.12,49920,14.38,73296.3,2.15,-24.83,-25.23,0,*76
1505005356.33,49921,14.38,73296.5,2.17,-24.93,-25.23,0,*74
1505005357.57,49922,14.44,73302.0,2.15,-24.83,-25.13,0,*77
1505005358.8,49923,14.38,73298.5,2.15,-24.83,-25.13,0,*76
1505005360.03,49924,14.38,73296.5,2.15,-24.83,-25.09,0,*7A
1505005361.26,49925,14.38,73300.5,2.15,-24.83,-25.23,0,*73
1505005362.49,49926,14.44,73302.8,2.15,-24.83,-25.13,0,*73
1505005363.78,49927,14.44,73292.8,2.13,-24.71,-25.03,0,*78
1505005365.06,49928,14.38,73292.0,2.13,-24.87,-25.29,0,*76
1505005366.28,49929,14.44,73294.8,2.11,-24.57,-24.83,0,*79
1505005367.54,49930,14.44,73292.3,2.13,-24.57,-24.87,0,*77
1505005368.82,49931,14.38,73286.5,2.13,-24.83,-25.03,0,*72
1505005370.1,49932,14.38,73288.8,2.13,-24.87,-25.29,0,*7D
1505005371.33,49933,14.38,73290.3,2.15,-24.83,-25.13,0,*77
1505005372.55,49934,14.38,73288.3,2.15,-24.67,-24.97,0,*77
1505005373.76,49935,14.38,73288.3,2.15,-24.47,-24.77,0,*7A
1505005374.99,49936,14.38,73284.8,2.15,-24.51,-24.67,0,*7F
1505005376.21,49937,14.38,73282.3,2.15,-24.67,-24.93,0,*70
1505005377.46,49938,14.38,73276.5,2.13,-24.35,-24.67,0,*75
1505005378.71,49939,14.38,73282.3,2.13,-24.57,-24.83,0,*7A
1505005379.94,49940,14.38,73298.5,2.15,-24.61,-24.83,0,*77
1505005381.14,49941,14.38,73298.0,2.15,-24.61,-24.93,0,*77
1505005382.34,49942,14.38,73304.5,2.15,-24.77,-24.93,0,*73
1505005383.55,49943,14.38,73306.0,2.15,-24.77,-25.09,0,*70
1505005384.78,49944,14.38,73304.5,2.15,-24.83,-25.13,0,*77
1505005386.01,49945,14.44,73306.3,2.15,-24.83,-25.09,0,*7D
1505005387.24,49946,14.38,73302.8,2.15,-24.83,-25.09,0,*7E
1505005388.48,49947,14.38,73302.3,2.15,-24.83,-25.09,0,*7F
1505005389.71,49948,14.38,73302.0,2.15,-24.83,-25.23,0,*78
1505005390.96,49949,14.38,73300.3,2.13,-24.97,-25.29,0,*70
1505005392.21,49950,14.38,73294.0,2.13,-25.03,-25.35,0,*79
1505005393.49,49951,14.38,73292.5,2.13,-24.87,-25.29,0,*78
1505005394.76,49952,14.44,73300.5,2.13,-25.03,-25.45,0,*7C
1505005396.01,49953,14.44,73296.5,2.13,-25.03,-25.35,0,*7A
1505005397.26,49954,14.44,73298.0,2.11,-25.03,-25.45,0,*78
1505005398.49,49955,14.38,73294.0,2.11,-24.97,-25.29,0,*7F
1505005399.72,49956,14.38,73298.0,2.11,-24.97,-25.29,0,*7C
1505005400.92,49957,14.38,73294.0,2.11,-24.97,-25.19,0,*7E
1505005402.15,49958,14.38,73294.0,2.11,-24.83,-25.13,0,*7E
1505005403.42,49959,14.44,73294.3,2.11,-24.71,-25.03,0,*73
1505005404.67,49960,14.38,73292.0,2.11,-24.67,-24.87,0,*73
1505005405.92,49961,14.38,73300.0,2.13,-24.57,-24.87,0,*73
1505005407.18,49962,14.38,73310.8,2.13,-24.57,-24.87,0,*70
1505005408.42,49963,14.38,73306.5,2.11,-24.47,-24.71,0,*7B
1505005409.65,49964,14.38,73300.0,2.11,-24.51,-24.83,0,*76
1505005410.91,49965,14.38,73292.8,2.13,-24.83,-25.19,0,*78
1505005412.14,49966,14.38,73298.0,2.11,-24.57,-24.83,0,*72
1505005413.37,49967,14.38,73298.8,2.11,-24.51,-24.87,0,*71
1505005414.6,49968,14.38,73292.5,2.11,-24.57,-24.87,0,*78
1505005415.84,49969,14.38,73296.5,2.11,-24.71,-25.13,0,*71
1505005417.1,49970,14.38,73296.3,2.11,-24.67,-24.87,0,*72
1505005418.33,49971,14.38,73296.8,2.11,-24.83,-25.13,0,*75
1505005419.56,49972,14.38,73300.5,2.11,-24.57,-24.87,0,*73
1505005420.8,49973,14.38,73298.3,2.11,-24.51,-24.71,0,*7D
1505005422.06,49974,14.38,73294.5,2.13,-24.21,-24.57,0,*7B
1505005423.33,49975,14.38,73296.5,2.13,-24.67,-24.87,0,*75
1505005424.61,49976,14.38,73296.5,2.13,-24.67,-24.87,0,*76
1505005425.87,49977,14.38,73294.3,2.13,-24.51,-24.83,0,*76
1505005427.13,49978,14.38,73294.3,2.13,-24.51,-24.71,0,*74
1505005428.36,49979,14.38,73298.8,2.11,-24.51,-24.83,0,*7A
1505005429.64,49980,14.38,73300.0,2.13,-24.67,-24.87,0,*7F
1505005430.89,49981,14.38,73296.8,2.11,-24.87,-25.29,0,*77
1505005432.12,49982,14.38,73302.8,2.11,-24.87,-25.19,0,*77
1505005433.4,49983,14.38,73300.8,2.13,-24.67,-24.87,0,*7C
1505005434.66,49984,14.38,73300.0,2.11,-24.71,-25.03,0,*73
1505005435.89,49985,14.38,73298.5,2.11,-24.57,-24.87,0,*7B
1505005437.15,49986,14.38,73294.8,2.13,-24.83,-25.13,0,*7F
1505005438.38,49987,14.38,73292.5,2.11,-24.57,-24.87,0,*79
1505005439.62,49988,14.38,73296.3,2.11,-24.47,-24.83,0,*73
1505005440.85,49989,14.44,73302.3,2.13,-24.31,-24.57,0,*78
1505005442.11,49990,14.44,73300.5,2.13,-24.51,-24.71,0,*72
1505005443.37,49991,14.38,73296.0,2.11,-24.83,-25.03,0,*7A
1505005444.63,49992,14.38,73294.5,2.11,-24.71,-24.87,0,*79
1505005445.84,49993,14.38,73292.8,2.11,-24.35,-24.57,0,*75
1505005447.07,49994,14.38,73286.8,2.11,-24.57,-24.83,0,*7F
1505005448.29,49995,14.38,73286.3,2.15,-24.87,-24.51,0,*78
1505005449.5,49996,14.38,73286.8,2.11,-23.59,-23.43,0,*7F
1505005450.75,49997,14.38,73290.3,2.13,-23.33,-23.75,0,*75
1505005452.03,49998,14.38,73294.8,2.13,-23.03,-23.19,0,*73
1505005453.26,49999,14.38,73298.0,2.11,-22.27,-22.73,0,*7A
1505005454.49,50000,14.38,73294.3,2.11,-22.21,-22.87,0,*76
1505005455.74,50001,14.38,73298.0,2.13,-22.21,-22.63,0,*7F
1505005457.03,50002,14.38,73292.3,2.13,-23.99,-24.21,0,*7E
1505005458.28,50003,14.38,73294.0,2.13,-23.99,-23.89,0,*7A
1505005459.52,50004,14.38,73292.8,2.13,-23.39,-23.53,0,*70
1505005460.75,50005,14.38,73296.5,2.11,-22.73,-23.09,0,*73
1505005461.98,50006,14.38,73290.5,2.13,-22.11,-22.27,0,*7B
1505005463.18,50007,14.38,73288.5,2.11,-21.63,-22.27,0,*7E
1505005464.43,50008,14.38,73296.3,2.13,-21.67,-21.13,0,*73
1505005465.63,50009,14.38,73288.8,2.11,-20.73,-21.47,0,*75
1505005466.84,50010,14.38,73290.8,2.11,-20.59,-21.43,0,*71
1505005468.09,50011,14.38,73300.8,2.13,-21.53,-22.27,0,*78
1505005469.35,50012,14.38,73298.0,2.13,-21.53,-22.57,0,*7C
1505005470.58,50013,14.38,73292.0,2.13,-22.93,-24.05,0,*73
1505005471.84,50014,14.38,73292.5,2.13,-24.51,-25.45,0,*79
1505005473.1,50015,14.38,73282.8,2.13,-24.05,-24.87,0,*76
1505005474.33,50016,14.38,73284.8,2.13,-23.59,-24.47,0,*77
1505005475.55,50017,14.38,73288.0,2.11,-23.69,-24.51,0,*70
1505005476.78,50018,14.38,73290.0,2.11,-23.99,-24.57,0,*76
1505005478.0,50019,14.38,73286.3,2.13,-23.75,-24.35,0,*73
1505005479.2,50020,14.38,73284.8,2.15,-23.79,-24.31,0,*77
1505005480.43,50021,14.38,73282.5,2.15,-23.95,-24.47,0,*75
1505005481.66,50022,14.38,73286.5,2.15,-23.95,-24.31,0,*77
1505005482.91,50023,14.38,73282.3,2.15,-23.53,-23.85,0,*74
1505005484.16,50024,14.38,73286.3,2.15,-23.95,-24.15,0,*77
1505005485.4,50025,14.38,73296.5,2.17,-23.79,-23.95,0,*79
1505005486.65,50026,14.38,73292.0,2.15,-23.99,-23.53,0,*7C
1505005487.9,50027,14.38,73302.0,2.15,-24.11,-22.73,0,*79
1505005489.16,50028,14.38,73300.3,2.17,-23.39,-21.23,0,*7F
1505005490.44,50029,14.38,73298.0,2.17,-23.19,-22.17,0,*78
1505005491.69,50030,14.38,73298.5,2.17,-23.79,-23.69,0,*7E
1505005492.96,50031,14.38,73302.3,2.17,-24.15,-24.11,0,*7A
1505005494.25,50032,14.38,73304.0,2.17,-24.25,-24.25,0,*7D
1505005495.48,50033,14.38,73300.0,2.17,-24.31,-24.47,0,*7D
1505005496.73,50034,14.38,73302.5,2.17,-24.67,-24.61,0,*7D
1505005497.98,50035,14.38,73306.5,2.17,-24.61,-24.67,0,*7C
1505005499.21,50036,14.38,73306.3,2.17,-24.61,-24.61,0,*79
1505005500.44,50037,14.38,73308.5,2.17,-24.61,-24.77,0,*7F
1505005501.69,50038,14.38,73306.0,2.17,-24.61,-24.67,0,*71
1505005502.92,50039,14.38,73310.3,2.17,-24.77,-24.93,0,*7C
1505005504.17,50040,14.38,73308.3,2.15,-24.67,-24.83,0,*70
1505005505.4,50041,14.38,73308.5,2.17,-24.77,-24.93,0,*73
1505005506.6,50042,14.38,73310.5,2.15,-24.77,-24.97,0,*76
1505005507.83,50043,14.38,73310.0,2.15,-24.83,-25.09,0,*7A
1505005509.06,50044,14.38,73306.3,2.15,-24.83,-24.97,0,*7B
1505005510.29,50045,14.38,73304.0,2.15,-24.83,-25.09,0,*7C
1505005511.49,50046,14.38,73304.3,2.15,-24.93,-25.13,0,*75
1505005512.68,50047,14.38,73308.8,2.15,-24.93,-25.23,0,*77
1505005513.93,50048,14.38,73304.5,2.17,-24.97,-25.29,0,*74
1505005515.16,50049,14.38,73310.5,2.15,-24.83,-25.09,0,*70
1505005516.44,50050,14.38,73306.0,2.13,-24.87,-25.03,0,*70
1505005517.72,50051,14.38,73304.8,2.13,-24.71,-25.03,0,*78
1505005518.95,50052,14.38,73306.0,2.15,-24.67,-24.93,0,*72
1505005520.15,50053,14.38,73304.5,2.15,-24.61,-24.93,0,*75
1505005521.4,50054,14.38,73306.8,2.15,-24.67,-24.83,0,*75
1505005522.6,50055,14.38,73306.8,2.15,-24.77,-25.13,0,*7D
1505005523.86,50056,14.38,73310.3,2.13,-24.71,-24.97,0,*73
1505005525.15,50057,14.38,73298.5,2.13,-24.71,-24.87,0,*73
1505005526.4,50058,14.38,73304.0,2.13,-24.15,-24.51,0,*75
1505005527.66,50059,14.38,73306.3,2.13,-24.51,-24.71,0,*76
1505005528.89,50060,14.38,73302.0,2.15,-24.41,-24.51,0,*79
1505005530.1,50061,14.38,73304.8,2.15,-24.31,-24.51,0,*7F
1505005531.33,50062,14.38,73306.3,2.15,-24.25,-24.47,0,*7E
1505005532.56,50063,14.38,73302.8,2.15,-24.25,-24.47,0,*7F
1505005533.82,50064,14.38,73298.0,2.15,-23.99,-24.25,0,*7C
1505005535.06,50065,14.38,73298.3,2.15,-24.15,-24.41,0,*7C
1505005536.34,50066,14.44,73300.5,2.17,-24.15,-24.41,0,*7D
1505005537.62,50067,14.38,73300.0,2.17,-23.99,-24.41,0,*7F
1505005538.88,50068,14.38,73290.8,2.17,-24.25,-24.47,0,*76
1505005540.14,50069,14.38,73294.3,2.17,-24.25,-24.47,0,*77
1505005541.39,50070,14.38,73290.5,2.19,-24.21,-24.41,0,*73
1505005542.62,50071,14.38,73290.3,2.19,-24.57,-24.71,0,*70
1505005543.83,50072,14.38,73292.0,2.19,-24.61,-24.77,0,*70
1505005545.06,50073,14.38,73296.0,2.19,-24.71,-24.93,0,*7A
1505005546.35,50074,14.38,73298.0,2.21,-24.71,-24.87,0,*73
1505005547.58,50075,14.38,73290.8,2.19,-24.77,-25.03,0,*72
1505005548.81,50076,14.38,73294.5,2.19,-24.87,-25.09,0,*74
1505005550.03,50077,14.38,73296.3,2.17,-24.93,-25.13,0,*75
1505005551.22,50078,14.38,73296.3,2.15,-24.93,-24.97,0,*75
1505005552.47,50079,14.38,73298.8,2.17,-24.61,-24.67,0,*74
1505005553.7,50080,14.38,73296.8,2.17,-24.51,-24.77,0,*70
1505005554.94,50081,14.38,73298.5,2.17,-24.51,-24.93,0,*7B
1505005556.14,50082,14.38,73296.5,2.19,-24.77,-25.09,0,*70
1505005557.37,50083,14.38,73294.5,2.19,-24.87,-25.19,0,*7F
1505005558.57,50084,14.38,73294.5,2.19,-24.77,-24.77,0,*7E
1505005559.81,50085,14.38,73294.8,2.17,-24.93,-24.67,0,*7A
1505005561.03,50086,14.38,73294.3,2.17,-25.09,-24.61,0,*7D
1505005562.3,50087,14.38,73292.3,2.17,-24.51,-24.25,0,*70
1505005563.5,50088,14.38,73296.3,2.15,-24.47,-24.61,0,*7A
1505005564.73,50089,14.38,73300.3,2.17,-24.61,-24.97,0,*74
1505005565.93,50090,14.38,73296.3,2.15,-24.77,-25.23,0,*77
1505005567.19,50091,14.38,73298.0,2.17,-24.83,-25.23,0,*7F
1505005568.41,50092,14.38,73296.5,2.17,-24.93,-25.39,0,*76
1505005569.66,50093,14.38,73300.8,2.17,-25.09,-25.45,0,*7E
1505005570.88,50094,14.38,73298.8,2.15,-25.09,-25.45,0,*7B
1505005572.13,50095,14.38,73298.3,2.17,-25.09,-25.45,0,*78
1505005573.35,50096,14.38,73296.3,2.15,-25.13,-25.45,0,*72
1505005574.58,50097,14.38,73298.0,2.15,-25.45,-25.65,0,*72
1505005575.8,50098,14.38,73298.5,2.15,-25.45,-25.61,0,*79
1505005577.03,50099,14.38,73298.0,2.15,-25.29,-25.61,0,*72
1505005578.26,50100,14.38,73296.5,2.15,-25.29,-25.61,0,*73
1505005579.51,50101,14.38,73298.8,2.13,-25.29,-25.65,0,*70
1505005580.77,50102,14.38,73300.5,2.11,-25.29,-25.55,0,*72
1505005582.02,50103,14.38,73296.5,2.13,-25.29,-25.49,0,*7C
1505005583.25,50104,14.38,73300.8,2.11,-25.19,-25.45,0,*76
1505005584.5,50105,14.38,73302.3,2.11,-25.29,-25.45,0,*74
1505005585.73,50106,14.38,73298.3,2.11,-25.29,-25.49,0,*7B
1505005586.96,50107,14.38,73300.5,2.11,-25.29,-25.49,0,*7A
1505005588.24,50108,14.38,73300.0,2.13,-25.29,-25.55,0,*7A
1505005589.47,50109,14.38,73302.8,2.11,-25.29,-25.49,0,*74
1505005590.7,50110,14.38,73304.0,2.11,-25.13,-25.45,0,*79
1505005591.9,50111,14.38,73302.8,2.07,-25.19,-25.39,0,*7E
1505005593.1,50112,14.38,73302.0,2.07,-25.23,-25.49,0,*73
1505005594.3,50113,14.38,73306.0,2.07,-25.19,-25.49,0,*7B
1505005595.52,50114,14.38,73308.0,2.07,-25.03,-25.23,0,*7B
1505005596.74,50115,14.38,73306.3,2.07,-25.03,-25.19,0,*73
1505005597.94,50116,14.38,73304.0,2.07,-25.09,-25.35,0,*74
1505005599.14,50117,14.38,73306.8,2.07,-25.19,-25.49,0,*7F
1505005600.34,50118,14.38,73310.5,2.07,-25.09,-25.49,0,*71
1505005601.59,50119,14.38,73306.8,2.05,-25.09,-25.29,0,*74
1505005602.81,50120,14.38,73306.0,2.05,-24.93,-25.09,0,*7E
1505005604.03,50121,14.38,73304.8,2.05,-24.93,-25.13,0,*74
1505005605.26,50122,14.38,73302.8,2.07,-25.03,-25.19,0,*77
1505005606.48,50123,14.38,73304.8,2.11,-24.97,-25.29,0,*7E
1505005607.68,50124,14.38,73300.8,2.11,-24.97,-25.19,0,*7A
1505005608.91,50125,14.38,73306.5,2.05,-25.13,-25.39,0,*71
1505005610.11,50126,14.38,73304.0,2.07,-25.19,-25.39,0,*7A
1505005611.31,50127,14.38,73302.5,2.07,-25.23,-25.49,0,*75
1505005612.59,50128,14.38,73304.0,2.05,-25.29,-25.55,0,*7F
1505005613.84,50129,14.38,73302.0,2.05,-25.23,-25.45,0,*75
1505005615.06,50130,14.38,73300.8,2.05,-25.09,-25.39,0,*7E
1505005616.32,50131,14.38,73304.3,2.05,-25.13,-25.55,0,*7E
1505005617.56,50132,14.38,73306.5,2.03,-25.13,-25.55,0,*7B
1505005618.79,50133,14.38,73306.5,2.03,-25.23,-25.55,0,*79
1505005620.04,50134,14.38,73304.3,2.03,-25.29,-25.55,0,*74
1505005621.27,50135,14.38,73304.0,2.03,-25.29,-25.61,0,*72
1505005622.48,50136,14.38,73300.8,2.03,-25.39,-25.61,0,*70
1505005623.74,50137,14.38,73304.3,2.01,-25.29,-25.49,0,*78
1505005624.97,50138,14.38,73304.0,2.03,-25.13,-25.45,0,*70
1505005626.17,50139,14.38,73310.3,2.03,-25.09,-25.39,0,*71
1505005627.39,50140,14.38,73308.8,2.03,-25.09,-25.29,0,*7E
1505005628.65,50141,14.38,73310.3,2.01,-25.29,-25.49,0,*79
1505005629.88,50142,14.38,73310.5,2.01,-25.13,-25.61,0,*79
1505005631.11,50143,14.38,73308.8,2.01,-25.19,-25.61,0,*72
1505005632.35,50144,14.38,73314.3,2.01,-25.13,-25.49,0,*75
1505005633.6,50145,14.38,73312.0,2.01,-25.13,-25.45,0,*78
1505005634.82,50146,14.38,73312.8,2.01,-25.19,-25.35,0,*76
1505005636.07,50147,14.38,73314.0,2.01,-25.03,-25.35,0,*7C
1505005637.34,50148,14.38,73308.8,2.01,-25.03,-25.45,0,*74
1505005638.62,50149,14.38,73308.5,2.01,-25.03,-25.45,0,*75
1505005639.84,50150,14.38,73306.0,2.03,-25.09,-25.29,0,*7F
1505005641.04,50151,14.38,73308.3,1.99,-25.13,-25.35,0,*78
1505005642.32,50152,14.38,73300.0,2.01,-25.03,-25.29,0,*75
1505005643.57,50153,14.38,73300.0,2.01,-25.03,-25.35,0,*79
1505005644.82,50154,14.38,73306.8,2.01,-25.19,-25.45,0,*72
1505005646.07,50155,14.38,73304.5,2.01,-25.13,-25.45,0,*79
1505005647.31,50156,14.38,73310.0,2.01,-25.19,-25.45,0,*70
1505005648.59,50157,14.38,73306.8,2.01,-24.83,-25.03,0,*71
1505005649.88,50158,14.38,73304.5,2.01,-24.71,-24.87,0,*7E
1505005651.14,50159,14.38,73302.0,2.01,-24.47,-24.71,0,*73
1505005652.39,50160,14.38,73296.5,2.01,-24.87,-25.13,0,*70
1505005653.67,50161,14.38,73294.0,2.01,-24.87,-25.29,0,*78
1505005654.89,50162,14.38,73290.3,2.01,-24.97,-25.19,0,*79
1505005656.17,50163,14.38,73292.8,2.01,-24.83,-25.03,0,*76
1505005657.37,50164,14.38,73296.5,2.03,-24.97,-25.23,0,*74
1505005658.59,50165,14.38,73294.5,2.01,-24.97,-24.97,0,*79
1505005659.82,50166,14.38,73292.8,2.01,-25.13,-25.19,0,*70
1505005661.05,50167,14.38,73300.8,2.01,-24.97,-25.13,0,*76
1505005662.32,50168,14.38,73298.8,2.01,-24.67,-24.71,0,*73
1505005663.58,50169,14.38,73304.0,2.01,-24.83,-24.97,0,*70
1505005664.78,50170,14.38,73300.8,2.03,-24.97,-25.13,0,*72
1505005666.01,50171,14.38,73292.3,2.01,-25.13,-25.35,0,*78
1505005667.23,50172,14.38,73286.3,2.03,-25.09,-25.29,0,*7F
1505005668.46,50173,14.38,73290.0,2.01,-25.13,-25.19,0,*74
1505005669.71,50174,14.38,73296.3,2.01,-25.03,-25.19,0,*72
1505005670.99,50175,14.38,73294.3,2.01,-24.83,-25.03,0,*71
1505005672.27,50176,14.38,73284.5,2.01,-24.83,-25.03,0,*72
1505005673.52,50177,14.38,73288.0,2.01,-24.87,-25.13,0,*76
1505005674.75,50178,14.38,73290.5,2.01,-24.97,-25.19,0,*72
1505005675.95,50179,14.38,73290.0,2.03,-24.77,-25.09,0,*7E
1505005677.23,50180,14.38,73294.0,2.01,-24.83,-25.03,0,*7B
1505005678.49,50181,14.38,73292.3,2.01,-24.83,-24.97,0,*76
1505005679.72,50182,14.38,73296.5,2.03,-24.67,-24.93,0,*79
1505005680.97,50183,14.38,73292.3,2.01,-24.83,-24.97,0,*74
1505005682.17,50184,14.38,73296.3,2.03,-24.77,-24.97,0,*7A
1505005683.38,50185,14.38,73292.5,2.03,-24.77,-24.93,0,*7F
1505005684.6,50186,14.38,73294.0,2.03,-24.67,-24.93,0,*7D
1505005685.86,50187,14.38,73296.8,2.01,-24.83,-25.13,0,*7D
1505005687.06,50188,14.38,73306.0,2.03,-24.97,-25.23,0,*76
1505005688.31,50189,14.38,73296.5,2.01,-24.87,-25.13,0,*77
1505005689.54,50190,14.38,73298.8,2.03,-24.67,-24.93,0,*7A
1505005690.74,50191,14.38,73300.8,2.03,-24.97,-25.13,0,*7D
1505005692.02,50192,14.38,73302.0,2.01,-25.03,-25.29,0,*79
1505005693.21,50193,14.38,73304.3,2.03,-24.93,-25.13,0,*7B
1505005694.41,50194,14.38,73304.0,2.03,-24.97,-25.23,0,*7B
1505005695.69,50195,14.38,73308.0,2.01,-25.03,-25.29,0,*7E
1505005696.89,50196,14.38,73310.0,2.03,-24.97,-25.23,0,*79
1505005698.09,50197,14.38,73304.3,2.03,-24.93,-25.13,0,*7F
1505005699.34,50198,14.38,73296.8,2.01,-24.83,-25.13,0,*73
1505005700.55,50199,14.38,73292.3,2.03,-24.77,-24.97,0,*76
1505005701.78,50200,14.38,73296.0,2.03,-24.83,-25.09,0,*78
1505005702.98,50201,14.38,73296.3,2.03,-24.97,-25.23,0,*74